Retour au catalogue

STARLINK-31730

ActifCommunicationsVLEO
NORAD 59555·PAYLOAD·🇺🇸 United States

Lancé Apr 18, 2024 depuis Cape Canaveral Space Force Station

Loading…

Prochains Passages (prochaines 24 heures)

TLE

FraisSource: CelesTrak SupGP

Époque: Sep 15, 2026, 03:15 UTC

1 59555C 24074X   26258.13590278  .00049704  00000+0  17998-2 0  2581
2 59555  43.0042 353.9935 0001668 262.9800  88.1196 15.27561664    16

Suivez STARLINK-31730 en temps réel avec AllMySat

Download on the App Store